{"data":{"norad_id":56204,"epoch":"2026-09-21T22:55:36.698304Z","epoch_age_seconds":74868,"freshness":"FRESH","line1":"1 56204U 23054AC  26264.95528586  .00012210  00000+0  17938-3 0  9995","line2":"2 56204  97.2954 176.7260 0007389  57.0098 303.1866 15.55606486193488","mean_motion":15.55606486,"eccentricity":0.0007389,"inclination_deg":97.2954,"raan_deg":176.726,"arg_perigee_deg":57.0098,"mean_anomaly_deg":303.1866,"bstar":0.00017938,"rev_number":19348,"period_min":92.568397789517,"perigee_km":395.38156845829,"apogee_km":405.39887598729,"semimajor_km":6778.5272222228,"source":"CELESTRAK","updated_at":"2026-09-22T09:00:25.736497Z"}}